Location: St. Louis
(38.6270°N, 90.1994°W)
Time: 01:37:11
(UTC-06:00)

Transit 4A - Pass Details

Date: 02 December 2021
Orbit: 863 x 981 km, 66.8° (Epoch: 24 January)

Event Time Altitude Azimuth Distance (km) Brightness Sun altitude
Rises 05:34:36 0° 324° (NW) 3,629 - -16.5°
Reaches altitude 10° 05:37:16 10° 317° (NW) 2,695 - -16.0°
Exits shadow 05:39:19 21° 307° (NW) 2,046 9.1 -15.6°
Maximum altitude 05:43:05 40° 250° (WSW) 1,396 8.4 -14.9°
Drops below altitude 10° 05:48:57 10° 183° (S) 2,720 10.5 -13.8°
Sets 05:51:40 0° 176° (S) 3,666 11.3 -13.3°
